Time,TemperatureF,DewpointF,PressureIn,WindDirection,WindDirectionDegrees,WindSpeedMPH,WindSpeedGustMPH,Humidity,HourlyPrecipIn,Conditions,Clouds,dailyrainin,SoftwareType,DateUTC
2013-07-03 00:02:00,63.0,-99.9,30.10,WNW,300,2.0,3.0,-999,-99.99,,,-99.99,,2013-07-03 04:02:00,
2013-07-03 00:11:00,63.0,-99.9,30.10,WNW,300,2.0,3.0,-999,-99.99,,,-99.99,,2013-07-03 04:11:00,
2013-07-03 00:22:00,63.0,-99.9,30.10,WNW,300,2.0,3.0,-999,-99.99,,,-99.99,,2013-07-03 04:22:00,
2013-07-03 00:34:00,63.0,-99.9,30.10,WNW,300,2.0,3.0,-999,-99.99,,,-99.99,,2013-07-03 04:34:00,
2013-07-03 00:40:00,63.0,-99.9,30.10,SSE,160,1.0,3.0,-999,-99.99,,,-99.99,,2013-07-03 04:40:00,
2013-07-03 01:12:00,63.0,-99.9,30.10,SSE,160,1.0,3.0,-999,-99.99,,,-99.99,,2013-07-03 05:12:00,
2013-07-03 01:23:00,63.0,-99.9,30.10,SSE,160,1.0,3.0,-999,-99.99,,,-99.99,,2013-07-03 05:23:00,
2013-07-03 01:40:00,63.0,-99.9,30.10,North,0,0.0,2.0,-999,-99.99,,,-99.99,,2013-07-03 05:40:00,
2013-07-03 02:08:00,63.0,-99.9,30.10,North,0,0.0,2.0,-999,-99.99,,,-99.99,,2013-07-03 06:08:00,
2013-07-03 02:16:00,63.0,-99.9,30.10,North,0,0.0,2.0,-999,-99.99,,,-99.99,,2013-07-03 06:16:00,
2013-07-03 02:40:00,62.0,-99.9,30.10,North,0,0.0,1.0,-999,-99.99,,,-99.99,,2013-07-03 06:40:00,
2013-07-03 03:08:00,62.0,-99.9,30.10,North,0,0.0,1.0,-999,-99.99,,,-99.99,,2013-07-03 07:08:00,
2013-07-03 03:16:00,62.0,-99.9,30.10,North,0,0.0,1.0,-999,-99.99,,,-99.99,,2013-07-03 07:16:00,
2013-07-03 03:28:00,62.0,-99.9,30.10,North,0,0.0,1.0,-999,-99.99,,,-99.99,,2013-07-03 07:28:00,
2013-07-03 04:40:00,62.0,-99.9,30.09,NW,310,2.0,3.0,-999,-99.99,,,-99.99,,2013-07-03 08:40:00,
2013-07-03 05:09:00,62.0,-99.9,30.09,NW,310,2.0,3.0,-999,-99.99,,,-99.99,,2013-07-03 09:09:00,
2013-07-03 05:16:00,62.0,-99.9,30.09,NW,310,2.0,3.0,-999,-99.99,,,-99.99,,2013-07-03 09:16:00,
2013-07-03 05:27:00,62.0,-99.9,30.09,NW,310,2.0,3.0,-999,-99.99,,,-99.99,,2013-07-03 09:27:00,
2013-07-03 06:07:00,62.0,-99.9,30.09,WNW,300,2.0,3.0,-999,-99.99,,,-99.99,,2013-07-03 10:07:00,
2013-07-03 06:18:00,62.0,-99.9,30.09,WNW,300,2.0,3.0,-999,-99.99,,,-99.99,,2013-07-03 10:18:00,
2013-07-03 06:29:00,62.0,-99.9,30.09,WNW,300,2.0,3.0,-999,-99.99,,,-99.99,,2013-07-03 10:29:00,
2013-07-03 06:37:00,62.0,-99.9,30.09,WNW,300,2.0,3.0,-999,-99.99,,,-99.99,,2013-07-03 10:37:00,
2013-07-03 06:40:00,61.0,-99.9,30.10,North,0,0.0,0.0,-999,-99.99,,,-99.99,,2013-07-03 10:40:00,
2013-07-03 07:07:00,61.0,-99.9,30.10,North,0,0.0,0.0,-999,-99.99,,,-99.99,,2013-07-03 11:07:00,
2013-07-03 07:16:00,61.0,-99.9,30.10,North,0,0.0,0.0,-999,-99.99,,,-99.99,,2013-07-03 11:16:00,
2013-07-03 07:27:00,61.0,-99.9,30.10,North,0,0.0,0.0,-999,-99.99,,,-99.99,,2013-07-03 11:27:00,
2013-07-03 07:39:00,61.0,-99.9,30.10,North,0,0.0,0.0,-999,-99.99,,,-99.99,,2013-07-03 11:39:00,
2013-07-03 07:40:00,63.0,-99.9,30.10,North,0,0.0,1.0,-999,-99.99,,,-99.99,,2013-07-03 11:40:00,
2013-07-03 08:09:00,63.0,-99.9,30.10,North,0,0.0,1.0,-999,-99.99,,,-99.99,,2013-07-03 12:09:00,
2013-07-03 08:17:00,63.0,-99.9,30.10,North,0,0.0,1.0,-999,-99.99,,,-99.99,,2013-07-03 12:17:00,
2013-07-03 08:27:00,63.0,-99.9,30.10,North,0,0.0,1.0,-999,-99.99,,,-99.99,,2013-07-03 12:27:00,
2013-07-03 08:38:00,63.0,-99.9,30.10,North,0,0.0,1.0,-999,-99.99,,,-99.99,,2013-07-03 12:38:00,
2013-07-03 08:40:00,64.0,-99.9,30.11,NE,40,3.0,3.0,-999,-99.99,,,-99.99,,2013-07-03 12:40:00,
2013-07-03 09:17:00,64.0,-99.9,30.11,NE,40,3.0,3.0,-999,-99.99,,,-99.99,,2013-07-03 13:17:00,
2013-07-03 09:25:00,64.0,-99.9,30.11,NE,40,3.0,3.0,-999,-99.99,,,-99.99,,2013-07-03 13:25:00,
2013-07-03 09:37:00,64.0,-99.9,30.11,NE,40,3.0,3.0,-999,-99.99,,,-99.99,,2013-07-03 13:37:00,
2013-07-03 09:40:00,65.0,-99.9,30.12,NNE,20,2.0,3.0,-999,-99.99,,,-99.99,,2013-07-03 13:40:00,
2013-07-03 10:07:00,65.0,-99.9,30.12,NNE,20,2.0,3.0,-999,-99.99,,,-99.99,,2013-07-03 14:07:00,
2013-07-03 10:15:00,65.0,-99.9,30.12,NNE,20,2.0,3.0,-999,-99.99,,,-99.99,,2013-07-03 14:15:00,
2013-07-03 10:26:00,65.0,-99.9,30.12,NNE,20,2.0,3.0,-999,-99.99,,,-99.99,,2013-07-03 14:26:00,
2013-07-03 10:38:00,65.0,-99.9,30.12,NNE,20,2.0,3.0,-999,-99.99,,,-99.99,,2013-07-03 14:38:00,
2013-07-03 10:40:00,65.0,-99.9,30.11,ENE,70,5.0,7.0,-999,-99.99,,,-99.99,,2013-07-03 14:40:00,
2013-07-03 11:16:00,65.0,-99.9,30.11,ENE,70,5.0,7.0,-999,-99.99,,,-99.99,,2013-07-03 15:16:00,
2013-07-03 11:27:00,65.0,-99.9,30.11,ENE,70,5.0,7.0,-999,-99.99,,,-99.99,,2013-07-03 15:27:00,
2013-07-03 11:38:00,65.0,-99.9,30.11,ENE,70,5.0,7.0,-999,-99.99,,,-99.99,,2013-07-03 15:38:00,
2013-07-03 11:40:00,64.0,-99.9,30.12,East,90,7.0,8.0,-999,-99.99,,,-99.99,,2013-07-03 15:40:00,
2013-07-03 12:07:00,64.0,-99.9,30.12,East,90,7.0,8.0,-999,-99.99,,,-99.99,,2013-07-03 16:07:00,
2013-07-03 12:17:00,64.0,-99.9,30.12,East,90,7.0,8.0,-999,-99.99,,,-99.99,,2013-07-03 16:17:00,
2013-07-03 12:25:00,64.0,-99.9,30.12,East,90,7.0,8.0,-999,-99.99,,,-99.99,,2013-07-03 16:25:00,
2013-07-03 12:40:00,66.0,-99.9,30.11,ESE,110,5.0,7.0,-999,-99.99,,,-99.99,,2013-07-03 16:40:00,
2013-07-03 13:09:00,66.0,-99.9,30.11,ESE,110,5.0,7.0,-999,-99.99,,,-99.99,,2013-07-03 17:09:00,
2013-07-03 13:17:00,66.0,-99.9,30.11,ESE,110,5.0,7.0,-999,-99.99,,,-99.99,,2013-07-03 17:17:00,
2013-07-03 13:40:00,65.0,-99.9,30.10,East,90,6.0,6.0,-999,-99.99,,,-99.99,,2013-07-03 17:40:00,
2013-07-03 14:08:00,65.0,-99.9,30.10,East,90,6.0,6.0,-999,-99.99,,,-99.99,,2013-07-03 18:08:00,
2013-07-03 14:26:00,65.0,-99.9,30.10,East,90,6.0,6.0,-999,-99.99,,,-99.99,,2013-07-03 18:26:00,
2013-07-03 14:39:00,65.0,-99.9,30.10,East,90,6.0,6.0,-999,-99.99,,,-99.99,,2013-07-03 18:39:00,
2013-07-03 14:40:00,67.0,-99.9,30.08,East,100,3.0,5.0,-999,-99.99,,,-99.99,,2013-07-03 18:40:00,
2013-07-03 15:05:00,67.0,-99.9,30.08,East,100,3.0,5.0,-999,-99.99,,,-99.99,,2013-07-03 19:05:00,
2013-07-03 15:16:00,67.0,-99.9,30.08,East,100,3.0,5.0,-999,-99.99,,,-99.99,,2013-07-03 19:16:00,
2013-07-03 15:30:00,67.0,-99.9,30.08,East,100,3.0,5.0,-999,-99.99,,,-99.99,,2013-07-03 19:30:00,
2013-07-03 15:38:00,67.0,-99.9,30.08,East,100,3.0,5.0,-999,-99.99,,,-99.99,,2013-07-03 19:38:00,
2013-07-03 15:40:00,67.0,-99.9,30.08,East,100,8.0,10.0,-999,-99.99,,,-99.99,,2013-07-03 19:40:00,
2013-07-03 16:07:00,67.0,-99.9,30.08,East,100,8.0,10.0,-999,-99.99,,,-99.99,,2013-07-03 20:07:00,
2013-07-03 16:15:00,67.0,-99.9,30.08,East,100,8.0,10.0,-999,-99.99,,,-99.99,,2013-07-03 20:15:00,
2013-07-03 16:26:00,67.0,-99.9,30.08,East,100,8.0,10.0,-999,-99.99,,,-99.99,,2013-07-03 20:26:00,
2013-07-03 16:39:00,67.0,-99.9,30.08,East,100,8.0,10.0,-999,-99.99,,,-99.99,,2013-07-03 20:39:00,
2013-07-03 16:40:00,66.0,-99.9,30.07,East,100,6.0,9.0,-999,-99.99,,,-99.99,,2013-07-03 20:40:00,
2013-07-03 17:07:00,66.0,-99.9,30.07,East,100,6.0,9.0,-999,-99.99,,,-99.99,,2013-07-03 21:07:00,
2013-07-03 17:27:00,66.0,-99.9,30.07,East,100,6.0,9.0,-999,-99.99,,,-99.99,,2013-07-03 21:27:00,
2013-07-03 17:38:00,66.0,-99.9,30.07,East,100,6.0,9.0,-999,-99.99,,,-99.99,,2013-07-03 21:38:00,
2013-07-03 18:40:00,65.0,-99.9,30.05,SE,130,8.0,8.0,-999,-99.99,,,-99.99,,2013-07-03 22:40:00,
2013-07-03 19:26:00,65.0,-99.9,30.05,SE,130,8.0,8.0,-999,-99.99,,,-99.99,,2013-07-03 23:26:00,
2013-07-03 20:40:00,65.0,-99.9,30.03,North,0,0.0,2.0,-999,-99.99,,,-99.99,,2013-07-04 00:40:00,
2013-07-03 21:16:00,65.0,-99.9,30.03,North,0,0.0,2.0,-999,-99.99,,,-99.99,,2013-07-04 01:16:00,
2013-07-03 21:25:00,65.0,-99.9,30.03,North,0,0.0,2.0,-999,-99.99,,,-99.99,,2013-07-04 01:25:00,
2013-07-03 21:40:00,63.0,-99.9,30.03,South,170,3.0,8.0,-999,-99.99,,,-99.99,,2013-07-04 01:40:00,
2013-07-03 22:08:00,63.0,-99.9,30.03,South,170,3.0,8.0,-999,-99.99,,,-99.99,,2013-07-04 02:08:00,
2013-07-03 22:24:00,63.0,-99.9,30.03,South,170,3.0,8.0,-999,-99.99,,,-99.99,,2013-07-04 02:24:00,
2013-07-03 22:40:00,63.0,-99.9,30.04,South,190,1.0,5.0,-999,-99.99,,,-99.99,,2013-07-04 02:40:00,
2013-07-03 23:06:00,63.0,-99.9,30.04,South,190,1.0,5.0,-999,-99.99,,,-99.99,,2013-07-04 03:06:00,
2013-07-03 23:15:00,63.0,-99.9,30.04,South,190,1.0,5.0,-999,-99.99,,,-99.99,,2013-07-04 03:15:00,
2013-07-03 23:29:00,63.0,-99.9,30.04,South,190,1.0,5.0,-999,-99.99,,,-99.99,,2013-07-04 03:29:00,
2013-07-03 23:36:00,63.0,-99.9,30.04,South,190,1.0,5.0,-999,-99.99,,,-99.99,,2013-07-04 03:36:00,